Powrót do katalogu

COSMOS 86

AktywnyMilitariaLEO
NORAD 1584·PAYLOAD·🇷🇺 Russia

Wystrzelony Sep 18, 1965 z Baikonur Cosmodrome

Loading…

Następne Przeloty (najbliższe 24 godziny)

TLE

ŚwieżeSource: Space-Track

Epoka: Sep 14, 2026, 06:03 UTC

1 01584U 65073A   26257.25275402 -.00000101  00000-0 -23123-4 0  9997
2 01584  56.0561 258.6700 0215280  44.4269 330.8185 12.51921374788600

Śledź COSMOS 86 w czasie rzeczywistym z AllMySat

Download on the App Store